Time,TemperatureF,DewpointF,PressureIn,WindDirection,WindDirectionDegrees,WindSpeedMPH,WindSpeedGustMPH,Humidity,HourlyPrecipIn,Conditions,Clouds,dailyrainin,SoftwareType,DateUTC
2013-04-04 00:02:00,43.0,40.0,30.16,NNW,328,1.0,6.0,90,0.00,,,0.38,,2013-04-04 05:02:00,
2013-04-04 00:13:00,43.0,40.0,30.16,NNW,328,1.0,6.0,90,0.00,,,0.38,,2013-04-04 05:13:00,
2013-04-04 00:23:00,43.0,41.0,30.16,NW,307,3.0,6.0,91,0.01,,,0.38,,2013-04-04 05:23:00,
2013-04-04 00:32:00,43.0,41.0,30.16,NW,319,3.0,8.0,91,0.04,,,0.41,,2013-04-04 05:32:00,
2013-04-04 00:42:00,43.0,41.0,30.16,NW,319,3.0,8.0,91,0.04,,,0.41,,2013-04-04 05:42:00,
2013-04-04 00:53:00,42.0,40.0,30.16,NW,312,3.0,6.0,93,0.09,,,0.46,,2013-04-04 05:53:00,
2013-04-04 01:02:00,42.0,40.0,30.15,NNE,18,2.0,7.0,93,0.10,,,0.47,,2013-04-04 06:02:00,
2013-04-04 01:12:00,42.0,40.0,30.15,NNE,18,2.0,7.0,93,0.10,,,0.47,,2013-04-04 06:12:00,
2013-04-04 01:22:00,43.0,41.0,30.16,NNW,328,2.0,6.0,93,0.09,,,0.47,,2013-04-04 06:22:00,
2013-04-04 01:32:00,42.0,40.0,30.16,NNW,333,6.0,9.0,93,0.07,,,0.48,,2013-04-04 06:32:00,
2013-04-04 01:42:00,42.0,40.0,30.16,NNW,333,6.0,9.0,93,0.07,,,0.48,,2013-04-04 06:42:00,
2013-04-04 01:52:00,42.0,40.0,30.16,NW,325,4.0,10.0,93,0.02,,,0.48,,2013-04-04 06:52:00,
2013-04-04 02:02:00,42.0,40.0,30.15,NNW,343,4.0,8.0,93,0.01,,,0.48,,2013-04-04 07:02:00,
2013-04-04 02:12:00,42.0,40.0,30.15,NNW,343,4.0,8.0,93,0.01,,,0.48,,2013-04-04 07:12:00,
2013-04-04 02:22:00,43.0,41.0,30.15,NNE,12,3.0,6.0,93,0.01,,,0.48,,2013-04-04 07:22:00,
2013-04-04 02:32:00,43.0,41.0,30.15,NW,316,2.0,6.0,92,0.00,,,0.48,,2013-04-04 07:32:00,
2013-04-04 02:43:00,43.0,41.0,30.15,NW,316,2.0,6.0,92,0.00,,,0.48,,2013-04-04 07:43:00,
2013-04-04 02:52:00,43.0,41.0,30.14,NW,319,3.0,8.0,92,0.00,,,0.48,,2013-04-04 07:52:00,
2013-04-04 03:02:00,43.0,41.0,30.14,NNW,337,3.0,9.0,92,0.00,,,0.48,,2013-04-04 08:02:00,
2013-04-04 03:12:00,43.0,41.0,30.14,NNW,337,3.0,9.0,92,0.00,,,0.48,,2013-04-04 08:12:00,
2013-04-04 03:22:00,43.0,41.0,30.14,NNW,343,4.0,8.0,92,0.00,,,0.46,,2013-04-04 08:22:00,
2013-04-04 03:32:00,43.0,41.0,30.14,NNW,333,3.0,9.0,92,0.00,,,0.46,,2013-04-04 08:32:00,
2013-04-04 03:43:00,43.0,41.0,30.14,NNW,333,3.0,9.0,92,0.00,,,0.46,,2013-04-04 08:43:00,
2013-04-04 03:52:00,43.0,41.0,30.13,NNE,13,4.0,7.0,92,0.00,,,0.46,,2013-04-04 08:52:00,
2013-04-04 04:02:00,43.0,41.0,30.13,NNE,16,4.0,8.0,92,0.00,,,0.46,,2013-04-04 09:02:00,
2013-04-04 04:12:00,43.0,41.0,30.13,NNE,16,4.0,8.0,92,0.00,,,0.46,,2013-04-04 09:12:00,
2013-04-04 04:22:00,43.0,41.0,30.13,NNE,18,6.0,9.0,93,0.00,,,0.40,,2013-04-04 09:22:00,
2013-04-04 04:33:00,42.0,40.0,30.13,NNW,330,5.0,9.0,93,0.00,,,0.40,,2013-04-04 09:33:00,
2013-04-04 04:43:00,42.0,40.0,30.13,NNW,330,5.0,9.0,93,0.00,,,0.40,,2013-04-04 09:43:00,
2013-04-04 04:54:00,42.0,40.0,30.13,NNW,328,4.0,7.0,94,0.00,,,0.40,,2013-04-04 09:54:00,
2013-04-04 05:12:00,42.0,40.0,30.13,NNW,341,3.0,11.0,94,0.00,,,0.40,,2013-04-04 10:12:00,
2013-04-04 05:23:00,42.0,40.0,30.13,NNW,331,3.0,7.0,94,0.00,,,0.32,,2013-04-04 10:23:00,
2013-04-04 05:33:00,42.0,40.0,30.13,NNW,333,4.0,9.0,94,0.00,,,0.32,,2013-04-04 10:33:00,
2013-04-04 05:42:00,42.0,40.0,30.13,NNW,333,4.0,9.0,94,0.00,,,0.32,,2013-04-04 10:42:00,
2013-04-04 05:54:00,42.0,40.0,30.13,NW,318,5.0,11.0,94,0.00,,,0.32,,2013-04-04 10:54:00,
2013-04-04 06:02:00,42.0,40.0,30.13,NW,319,3.0,10.0,94,0.00,,,0.32,,2013-04-04 11:02:00,
2013-04-04 06:12:00,42.0,40.0,30.13,NW,319,3.0,10.0,94,0.00,,,0.32,,2013-04-04 11:12:00,
2013-04-04 06:22:00,42.0,40.0,30.14,NNW,345,6.0,12.0,94,0.00,,,0.31,,2013-04-04 11:22:00,
2013-04-04 06:32:00,42.0,40.0,30.14,NW,314,3.0,9.0,94,0.00,,,0.31,,2013-04-04 11:32:00,
2013-04-04 06:42:00,42.0,40.0,30.14,NW,314,3.0,9.0,94,0.00,,,0.31,,2013-04-04 11:42:00,
2013-04-04 06:54:00,42.0,40.0,30.14,NNW,327,5.0,10.0,94,0.00,,,0.31,,2013-04-04 11:54:00,
2013-04-04 07:02:00,42.0,40.0,30.14,NW,308,2.0,6.0,94,0.00,,,0.31,,2013-04-04 12:02:00,
2013-04-04 07:12:00,42.0,40.0,30.14,NW,308,2.0,6.0,94,0.00,,,0.31,,2013-04-04 12:12:00,
2013-04-04 07:22:00,42.0,40.0,30.14,North,10,5.0,10.0,93,0.00,,,0.31,,2013-04-04 12:22:00,
2013-04-04 07:32:00,42.0,40.0,30.15,NNW,339,4.0,11.0,93,0.00,,,0.31,,2013-04-04 12:32:00,
2013-04-04 07:43:00,42.0,40.0,30.15,NNW,339,4.0,11.0,93,0.00,,,0.31,,2013-04-04 12:43:00,
2013-04-04 07:52:00,42.0,40.0,30.15,NNW,335,4.0,8.0,92,0.00,,,0.31,,2013-04-04 12:52:00,
2013-04-04 08:02:00,42.0,40.0,30.15,NW,325,3.0,11.0,92,0.00,,,0.31,,2013-04-04 13:02:00,
2013-04-04 08:12:00,42.0,40.0,30.15,NW,325,3.0,11.0,92,0.00,,,0.31,,2013-04-04 13:12:00,
2013-04-04 08:22:00,42.0,40.0,30.16,NW,319,2.0,9.0,92,0.00,,,0.31,,2013-04-04 13:22:00,
2013-04-04 08:32:00,42.0,40.0,30.16,NNE,18,4.0,9.0,91,0.00,,,0.31,,2013-04-04 13:32:00,
2013-04-04 08:42:00,42.0,40.0,30.16,NNE,18,4.0,9.0,91,0.00,,,0.31,,2013-04-04 13:42:00,
2013-04-04 08:53:00,43.0,41.0,30.16,NNW,335,4.0,9.0,91,0.00,,,0.31,,2013-04-04 13:53:00,
2013-04-04 09:03:00,43.0,41.0,30.16,NNW,338,5.0,9.0,91,0.00,,,0.31,,2013-04-04 14:03:00,
2013-04-04 09:12:00,43.0,41.0,30.16,NNW,338,5.0,9.0,91,0.00,,,0.31,,2013-04-04 14:12:00,
2013-04-04 09:22:00,43.0,40.0,30.16,NNW,330,4.0,10.0,90,0.00,,,0.31,,2013-04-04 14:22:00,
2013-04-04 09:32:00,43.0,40.0,30.17,NNW,345,4.0,9.0,90,0.00,,,0.31,,2013-04-04 14:32:00,
2013-04-04 09:42:00,43.0,40.0,30.17,NNW,345,4.0,9.0,90,0.00,,,0.31,,2013-04-04 14:42:00,
2013-04-04 09:53:00,43.0,40.0,30.17,NW,320,6.0,8.0,90,0.00,,,0.31,,2013-04-04 14:53:00,
2013-04-04 10:02:00,43.0,40.0,30.18,NW,323,7.0,11.0,88,0.00,,,0.31,,2013-04-04 15:02:00,
2013-04-04 10:12:00,43.0,40.0,30.18,NW,323,7.0,11.0,88,0.00,,,0.31,,2013-04-04 15:12:00,
2013-04-04 10:23:00,44.0,41.0,30.19,NW,307,5.0,13.0,88,0.00,,,0.31,,2013-04-04 15:23:00,
2013-04-04 10:33:00,44.0,40.0,30.19,NNW,345,5.0,10.0,87,0.00,,,0.31,,2013-04-04 15:33:00,
2013-04-04 10:43:00,44.0,40.0,30.19,NNW,345,5.0,10.0,87,0.00,,,0.31,,2013-04-04 15:43:00,
2013-04-04 10:53:00,44.0,40.0,30.19,WNW,293,7.0,13.0,85,0.00,,,0.31,,2013-04-04 15:53:00,
2013-04-04 11:03:00,45.0,41.0,30.20,North,354,6.0,12.0,85,0.00,,,0.31,,2013-04-04 16:03:00,
2013-04-04 11:12:00,45.0,41.0,30.20,North,354,6.0,12.0,85,0.00,,,0.31,,2013-04-04 16:12:00,
2013-04-04 11:23:00,44.0,40.0,30.21,NNW,330,7.0,11.0,85,0.00,,,0.31,,2013-04-04 16:23:00,
2013-04-04 11:32:00,44.0,40.0,30.21,North,352,5.0,13.0,85,0.00,,,0.31,,2013-04-04 16:32:00,
2013-04-04 11:42:00,44.0,40.0,30.21,North,352,5.0,13.0,85,0.00,,,0.31,,2013-04-04 16:42:00,
2013-04-04 11:53:00,44.0,40.0,30.22,NW,304,6.0,11.0,86,0.00,,,0.31,,2013-04-04 16:53:00,
2013-04-04 12:03:00,44.0,41.0,30.22,NNE,21,5.0,10.0,88,0.00,,,0.31,,2013-04-04 17:03:00,
2013-04-04 12:13:00,44.0,41.0,30.22,NNE,21,5.0,10.0,88,0.00,,,0.31,,2013-04-04 17:13:00,
2013-04-04 12:22:00,44.0,40.0,30.22,NW,320,6.0,10.0,87,0.00,,,0.31,,2013-04-04 17:22:00,
2013-04-04 12:33:00,45.0,41.0,30.22,NNW,340,5.0,12.0,86,0.00,,,0.31,,2013-04-04 17:33:00,
2013-04-04 12:42:00,45.0,41.0,30.22,NNW,340,5.0,12.0,86,0.00,,,0.31,,2013-04-04 17:42:00,
2013-04-04 12:52:00,45.0,40.0,30.22,NW,324,4.0,12.0,84,0.00,,,0.31,,2013-04-04 17:52:00,
2013-04-04 13:02:00,46.0,41.0,30.22,NW,313,7.0,12.0,82,0.00,,,0.31,,2013-04-04 18:02:00,
2013-04-04 13:12:00,46.0,41.0,30.22,NW,313,7.0,12.0,82,0.00,,,0.31,,2013-04-04 18:12:00,
2013-04-04 13:22:00,47.0,41.0,30.21,NW,326,7.0,14.0,80,0.00,,,0.31,,2013-04-04 18:22:00,
2013-04-04 13:32:00,47.0,41.0,30.21,West,279,8.0,14.0,78,0.00,,,0.31,,2013-04-04 18:32:00,
2013-04-04 13:42:00,47.0,41.0,30.21,West,279,8.0,14.0,78,0.00,,,0.31,,2013-04-04 18:42:00,
2013-04-04 13:52:00,47.0,41.0,30.20,North,4,7.0,13.0,78,0.00,,,0.31,,2013-04-04 18:52:00,
2013-04-04 14:02:00,48.0,41.0,30.19,WNW,302,8.0,15.0,76,0.00,,,0.31,,2013-04-04 19:02:00,
2013-04-04 14:12:00,48.0,41.0,30.19,WNW,302,8.0,15.0,76,0.00,,,0.31,,2013-04-04 19:12:00,
2013-04-04 14:22:00,48.0,41.0,30.18,NW,307,7.0,15.0,76,0.00,,,0.31,,2013-04-04 19:22:00,
2013-04-04 14:32:00,49.0,42.0,30.17,NW,315,8.0,14.0,76,0.00,,,0.31,,2013-04-04 19:32:00,
2013-04-04 14:42:00,49.0,42.0,30.17,NW,315,8.0,14.0,76,0.00,,,0.31,,2013-04-04 19:42:00,
2013-04-04 14:52:00,49.0,41.0,30.17,WNW,287,9.0,14.0,74,0.00,,,0.31,,2013-04-04 19:52:00,
2013-04-04 15:03:00,50.0,42.0,30.17,NNW,347,7.0,17.0,73,0.00,,,0.31,,2013-04-04 20:03:00,
2013-04-04 15:12:00,50.0,42.0,30.17,NNW,347,7.0,17.0,73,0.00,,,0.31,,2013-04-04 20:12:00,
2013-04-04 15:22:00,50.0,42.0,30.16,NW,312,7.0,15.0,73,0.00,,,0.31,,2013-04-04 20:22:00,
2013-04-04 15:32:00,50.0,42.0,30.16,NNW,342,7.0,16.0,73,0.00,,,0.31,,2013-04-04 20:32:00,
2013-04-04 15:42:00,50.0,42.0,30.16,NNW,342,7.0,16.0,73,0.00,,,0.31,,2013-04-04 20:42:00,
2013-04-04 15:53:00,49.0,41.0,30.16,NW,319,7.0,18.0,75,0.00,,,0.31,,2013-04-04 20:53:00,
2013-04-04 16:02:00,49.0,41.0,30.15,NW,318,10.0,16.0,75,0.00,,,0.31,,2013-04-04 21:02:00,
2013-04-04 16:12:00,49.0,41.0,30.15,NW,318,10.0,16.0,75,0.00,,,0.31,,2013-04-04 21:12:00,
2013-04-04 16:22:00,49.0,41.0,30.15,NW,320,6.0,13.0,75,0.00,,,0.31,,2013-04-04 21:22:00,
2013-04-04 16:32:00,49.0,41.0,30.15,NW,320,6.0,13.0,75,0.00,,,0.31,,2013-04-04 21:32:00,
2013-04-04 16:43:00,49.0,41.0,30.15,NW,320,6.0,13.0,75,0.00,,,0.31,,2013-04-04 21:43:00,
2013-04-04 16:53:00,50.0,43.0,30.14,NW,319,7.0,13.0,76,0.00,,,0.31,,2013-04-04 21:53:00,
2013-04-04 17:03:00,50.0,43.0,30.14,NW,319,6.0,14.0,76,0.00,,,0.31,,2013-04-04 22:03:00,
2013-04-04 17:12:00,50.0,43.0,30.14,NW,319,6.0,14.0,76,0.00,,,0.31,,2013-04-04 22:12:00,
2013-04-04 17:23:00,50.0,42.0,30.14,WNW,301,6.0,13.0,75,0.00,,,0.31,,2013-04-04 22:23:00,
2013-04-04 17:33:00,50.0,42.0,30.14,NNW,347,4.0,11.0,75,0.00,,,0.31,,2013-04-04 22:33:00,
2013-04-04 17:42:00,50.0,42.0,30.14,NNW,347,4.0,11.0,75,0.00,,,0.31,,2013-04-04 22:42:00,
2013-04-04 17:53:00,50.0,42.0,30.14,NNW,347,4.0,11.0,75,0.00,,,0.31,,2013-04-04 22:53:00,
2013-04-04 18:02:00,51.0,43.0,30.14,NW,314,6.0,11.0,73,0.00,,,0.31,,2013-04-04 23:02:00,
2013-04-04 18:12:00,51.0,43.0,30.14,NW,314,6.0,11.0,73,0.00,,,0.31,,2013-04-04 23:12:00,
2013-04-04 18:22:00,51.0,42.0,30.14,NW,316,6.0,11.0,72,0.00,,,0.13,,2013-04-04 23:22:00,
2013-04-04 18:32:00,51.0,42.0,30.14,NW,316,6.0,11.0,72,0.00,,,0.13,,2013-04-04 23:32:00,
2013-04-04 18:42:00,51.0,42.0,30.14,NW,316,6.0,11.0,72,0.00,,,0.13,,2013-04-04 23:42:00,
2013-04-04 18:52:00,51.0,42.0,30.14,NNW,342,5.0,11.0,72,0.00,,,0.13,,2013-04-04 23:52:00,
2013-04-04 19:02:00,51.0,43.0,30.14,NW,325,2.0,6.0,73,0.00,,,0.13,,2013-04-05 00:02:00,
2013-04-04 19:12:00,51.0,43.0,30.14,NW,325,2.0,6.0,73,0.00,,,0.13,,2013-04-05 00:12:00,
2013-04-04 19:22:00,51.0,43.0,30.14,NW,325,2.0,6.0,73,0.00,,,0.13,,2013-04-05 00:22:00,
2013-04-04 19:32:00,51.0,43.0,30.14,NW,307,4.0,8.0,73,0.00,,,0.11,,2013-04-05 00:32:00,
2013-04-04 19:42:00,51.0,43.0,30.14,NW,307,4.0,8.0,73,0.00,,,0.11,,2013-04-05 00:42:00,
2013-04-04 19:52:00,51.0,43.0,30.14,NNW,342,4.0,8.0,73,0.00,,,0.11,,2013-04-05 00:52:00,
2013-04-04 20:02:00,51.0,43.0,30.15,NW,313,2.0,8.0,73,0.00,,,0.11,,2013-04-05 01:02:00,
2013-04-04 20:12:00,51.0,43.0,30.15,NW,313,2.0,8.0,73,0.00,,,0.11,,2013-04-05 01:12:00,
2013-04-04 20:22:00,51.0,43.0,30.15,WNW,300,0.0,6.0,75,0.00,,,0.11,,2013-04-05 01:22:00,
2013-04-04 20:32:00,51.0,43.0,30.15,NNW,328,2.0,5.0,75,0.00,,,0.11,,2013-04-05 01:32:00,
2013-04-04 20:42:00,51.0,43.0,30.15,NNW,328,2.0,5.0,75,0.00,,,0.11,,2013-04-05 01:42:00,
2013-04-04 20:53:00,51.0,43.0,30.15,NNW,328,2.0,5.0,75,0.00,,,0.11,,2013-04-05 01:53:00,
2013-04-04 21:03:00,51.0,44.0,30.16,NNE,16,2.0,5.0,76,0.00,,,0.11,,2013-04-05 02:03:00,
2013-04-04 21:12:00,51.0,44.0,30.16,NNE,16,2.0,5.0,76,0.00,,,0.11,,2013-04-05 02:12:00,
2013-04-04 21:22:00,51.0,44.0,30.16,NNW,345,2.0,4.0,76,0.00,,,0.11,,2013-04-05 02:22:00,
2013-04-04 21:32:00,50.0,43.0,30.16,NNW,328,2.0,4.0,76,0.00,,,0.11,,2013-04-05 02:32:00,
2013-04-04 21:42:00,50.0,43.0,30.16,NNW,328,2.0,4.0,76,0.00,,,0.11,,2013-04-05 02:42:00,
2013-04-04 21:52:00,50.0,43.0,30.16,NW,307,0.0,4.0,77,0.00,,,0.11,,2013-04-05 02:52:00,
2013-04-04 22:02:00,49.0,43.0,30.17,West,274,0.0,1.0,79,0.00,,,0.11,,2013-04-05 03:02:00,
2013-04-04 22:12:00,49.0,43.0,30.17,West,274,0.0,1.0,79,0.00,,,0.11,,2013-04-05 03:12:00,
2013-04-04 22:22:00,49.0,43.0,30.18,WNW,285,0.0,1.0,81,0.00,,,0.11,,2013-04-05 03:22:00,
2013-04-04 22:32:00,48.0,43.0,30.19,WNW,285,0.0,2.0,82,0.00,,,0.11,,2013-04-05 03:32:00,
2013-04-04 22:43:00,48.0,43.0,30.19,WNW,285,0.0,2.0,82,0.00,,,0.11,,2013-04-05 03:43:00,
2013-04-04 22:54:00,48.0,43.0,30.19,NW,307,0.0,2.0,83,0.00,,,0.11,,2013-04-05 03:54:00,
2013-04-04 23:02:00,48.0,43.0,30.19,WNW,284,1.0,4.0,83,0.00,,,0.11,,2013-04-05 04:02:00,
2013-04-04 23:12:00,48.0,43.0,30.19,WNW,284,1.0,4.0,83,0.00,,,0.11,,2013-04-05 04:12:00,
2013-04-04 23:22:00,48.0,43.0,30.20,West,273,1.0,4.0,83,0.00,,,0.11,,2013-04-05 04:22:00,
2013-04-04 23:32:00,47.0,42.0,30.19,NW,308,1.0,4.0,83,0.00,,,0.11,,2013-04-05 04:32:00,
2013-04-04 23:42:00,47.0,42.0,30.19,NW,308,1.0,4.0,83,0.00,,,0.11,,2013-04-05 04:42:00,
2013-04-04 23:52:00,47.0,42.0,30.19,NW,308,1.0,3.0,84,0.00,,,0.11,,2013-04-05 04:52:00,